Location: La Loche
(56.4820°N, 109.4353°W)
Time: 19:11:00
(UTC-06:00)

ISS - Visible Passes

Search period start: 19 March 2019 00:00
Search period end: 29 March 2019 00:00
Orbit: 406 x 411 km, 51.6° (Epoch: 20 March)

Date Brightness Start Highest point End Pass type
(mag) Time Alt. Az. Time Alt. Az. Time Alt. Az.
22 Mar -1.1 21:57:28 10° SSW 21:57:29 10° SSW 21:57:29 10° SSW visible
23 Mar -2.0 21:07:02 10° SSW 21:09:05 17° SSE 21:09:05 17° SSE visible
24 Mar -1.6 20:16:59 10° S 20:18:26 12° SSE 20:19:52 10° ESE visible
24 Mar -2.3 21:51:22 10° SW 21:53:15 24° SSW 21:53:15 24° SSW visible
25 Mar -2.5 21:00:38 10° SW 21:03:22 24° SSE 21:04:31 20° SE visible
25 Mar -1.4 22:36:23 10° WSW 22:37:16 16° WSW 22:37:16 16° WSW visible
26 Mar -3.0 21:45:27 10° WSW 21:48:25 34° S 21:48:25 34° S visible
27 Mar -2.8 20:54:33 10° SW 20:57:31 31° SSE 20:59:29 17° ESE visible
27 Mar -1.9 22:30:39 10° WSW 22:32:12 22° SW 22:32:12 22° SW visible
28 Mar -3.0 21:39:37 10° WSW 21:42:40 35° S 21:43:12 32° SSE visible
